EXPRESS-AT1

Last updated on Sun Apr 12 2026 00:02:53 GMT+0000 (Coordinated Universal Time)

1 39612U 14010A 26101.53195744 .00000072 00000+0 00000+0 0 9992 2 39612 0.0852 82.2327 0001612 8.7311 357.1296 1.00284889 44148
UTC large
Height (km)
Speed (km/s)
/
Latitude / Longitude
Inclination (degrees)
Orbital Period (minutes)
Azimuth
Elevation
Range (km)
Doppler Factor

Next 0 passes for location: London (51.5072 / 0.1276)

Sorry there are no passes over London.
EXPRESS-AT1